CW5834 Weather Reports


time (UTC)temp
C
wind
direction
speed
KPH
gust
KPH
rain 1hr
cm
rain 24hr
cm
rain mn
cm
humidity
%
barometer
mb
20260509011537 13 0.0 0.0 0.00 0.00 0.00 56 1013.5
20260509010517 13 0.0 3.2 0.00 0.00 0.00 60 1013.4
20260509005517 14 338 1.6 1.6 0.00 0.00 0.00 59 1013.5
20260509004537 14 0.0 0.0 0.00 0.00 0.00 52 1013.1
20260509003516 15 0.0 3.2 0.00 0.00 0.00 53 1013.2
20260509002516 15 315 1.6 1.6 0.00 0.00 0.00 55 1013.2
20260509001517 16 0.0 1.6 0.00 0.00 0.00 48 1012.8
20260509000516 16 0.0 3.2 0.00 0.00 0.00 47 1013.1
20260508235516 17 315 1.6 1.6 0.00 0.00 0.00 46 1013.1
20260508234516 17 315 1.6 1.6 0.00 0.00 0.00 41 1013.0
20260508233516 18 0.0 3.2 0.00 0.00 0.00 38 1013.5
20260508232516 20 270 1.6 4.8 0.00 0.00 0.00 34 1013.3
20260508231516 21 0.0 3.2 0.00 0.00 0.00 34 1013.4
20260508230516 21 0.0 3.2 0.00 0.00 0.00 33 1013.4
20260508225516 21 203 1.6 6.4 0.00 0.00 0.00 30 1013.6
20260508224516 21 315 1.6 4.8 0.00 0.00 0.00 33 1013.6
20260508223516 21 225 3.2 8.0 0.00 0.00 0.00 33 1013.6
20260508222516 21 225 3.2 11.3 0.00 0.00 0.00 36 1013.8
20260508221516 21 248 4.8 12.9 0.00 0.00 0.00 30 1013.9
20260508220516 21 248 1.6 4.8 0.00 0.00 0.00 32 1013.9
20260508215516 21 203 4.8 14.5 0.00 0.00 0.00 31 1013.8
20260508214617 21 270 1.6 6.4 0.00 0.00 0.00 29 1013.8
20260508213516 21 225 4.8 14.5 0.00 0.00 0.00 33 1013.9
20260508212516 21 203 3.2 8.0 0.00 0.00 0.00 33 1013.7
20260508211516 21 248 1.6 6.4 0.00 0.00 0.00 31 1013.9
20260508210536 21 270 3.2 6.4 0.00 0.00 0.00 30 1013.9
20260508205516 21 248 4.8 12.9 0.00 0.00 0.00 30 1013.9
20260508204516 21 225 3.2 8.0 0.00 0.00 0.00 36 1014.0
20260508203536 21 270 3.2 9.7 0.00 0.00 0.00 33 1014.2
20260508202516 20 315 3.2 16.1 0.00 0.00 0.00 36 1014.2
20260508201516 21 0 4.8 14.5 0.00 0.00 0.00 38 1014.5
20260508200516 21 225 1.6 6.4 0.00 0.00 0.00 35 1014.7
20260508195516 21 225 4.8 9.7 0.00 0.00 0.00 36 1014.9
20260508194516 21 225 1.6 4.8 0.00 0.00 0.00 36 1015.3
20260508193516 20 180 3.2 16.1 0.00 0.00 0.00 36 1015.7
20260508192536 20 203 4.8 11.3 0.00 0.00 0.00 34 1015.8
20260508191516 20 23 3.2 6.4 0.00 0.00 0.00 35 1015.9
20260508190516 20 68 1.6 6.4 0.00 0.00 0.00 35 1015.9
20260508185526 20 203 3.2 11.3 0.00 0.00 0.00 33 1016.2
20260508184516 20 180 4.8 9.7 0.00 0.00 0.00 33 1016.2
20260508183516 20 180 3.2 8.0 0.00 0.00 0.00 37 1016.5
20260508182516 20 23 1.6 4.8 0.00 0.00 0.00 35 1016.6
20260508181516 19 23 3.2 9.7 0.00 0.00 0.00 39 1016.7
20260508180516 19 90 3.2 6.4 0.00 0.00 0.00 35 1016.7
20260508175515 18 135 3.2 4.8 0.00 0.00 0.00 39 1016.9
20260508174516 18 270 1.6 6.4 0.00 0.00 0.00 34 1017.0
20260508173535 18 68 3.2 11.3 0.00 0.00 0.00 33 1017.1
20260508172515 18 113 4.8 14.5 0.00 0.00 0.00 41 1017.3
20260508171516 18 203 1.6 6.4 0.00 0.00 0.00 37 1017.4
20260508170536 18 315 1.6 6.4 0.00 0.00 0.00 39 1017.6
20260508165515 18 293 3.2 12.9 0.00 0.00 0.00 43 1017.8
20260508164516 18 45 1.6 4.8 0.00 0.00 0.00 41 1018.1
20260508163516 18 180 1.6 4.8 0.00 0.00 0.00 43 1018.1
20260508162515 17 293 1.6 6.4 0.00 0.00 0.00 44 1018.2
20260508161515 17 45 3.2 6.4 0.00 0.00 0.00 42 1018.4
20260508160516 17 90 3.2 6.4 0.00 0.00 0.00 43 1018.7
20260508155535 17 0 3.2 9.7 0.00 0.00 0.00 51 1018.6
20260508154515 17 0 3.2 8.0 0.00 0.00 0.00 47 1018.8
20260508153515 17 0 3.2 6.4 0.00 0.00 0.00 46 1019.0
20260508152535 17 315 3.2 4.8 0.00 0.00 0.00 52 1019.1
20260508151515 16 0 3.2 6.4 0.00 0.00 0.00 46 1019.3
20260508150557 16 113 1.6 6.4 0.00 0.00 0.00 50 1019.3
20260508145517 16 135 3.2 11.3 0.00 0.00 0.00 49 1019.4
20260508144527 16 180 3.2 8.0 0.00 0.00 0.00 50 1019.2
20260508143517 15 203 4.8 8.0 0.00 0.00 0.00 45 1019.4
20260508142517 15 113 3.2 6.4 0.00 0.00 0.00 47 1019.4
20260508141517 15 113 3.2 8.0 0.00 0.00 0.00 49 1019.3
20260508140517 15 158 1.6 6.4 0.00 0.00 0.00 52 1019.4
20260508135517 15 158 1.6 4.8 0.00 0.00 0.00 55 1019.3
20260508134517 14 225 1.6 3.2 0.00 0.00 0.00 67 1019.3
20260508133517 13 315 1.6 3.2 0.00 0.00 0.00 74 1019.4
20260508132517 13 315 1.6 4.8 0.00 0.00 0.00 73 1019.1
20260508131518 12 315 1.6 3.2 0.00 0.00 0.00 78 1019.2
20260508130517 12 315 1.6 3.2 0.00 0.00 0.00 81 1019.0
20260508125517 11 0.0 3.2 0.00 0.00 0.00 84 1019.0
20260508124517 10 0.0 3.2 0.00 0.00 0.00 88 1019.0
20260508123517 8 338 1.6 1.6 0.00 0.00 0.00 88 1018.9
20260508122517 7 0.0 3.2 0.00 0.00 0.00 93 1018.8
20260508121517 6 0.0 0.0 0.00 0.00 0.00 94 1018.8
20260508120517 5 0.0 3.2 0.00 0.00 0.00 94 1018.5
20260508115517 5 0.0 3.2 0.00 0.00 0.00 94 1018.5
20260508114517 4 0.0 3.2 0.00 0.00 0.00 94 1018.5
20260508113517 3 0.0 0.0 0.00 0.00 0.00 94 1018.2
20260508112517 3 0.0 0.0 0.00 0.00 0.00 93 1017.9
20260508111517 3 0.0 3.2 0.00 0.00 0.00 93 1017.8
20260508110517 3 0.0 3.2 0.00 0.00 0.00 93 1017.6
20260508105517 3 0.0 3.2 0.00 0.00 0.00 93 1017.4
20260508104517 3 0.0 1.6 0.00 0.00 0.00 92 1017.5
20260508103517 3 0.0 0.0 0.00 0.00 0.00 92 1017.5
20260508102517 3 0.0 3.2 0.00 0.00 0.00 93 1017.5
20260508101517 3 0.0 0.0 0.00 0.00 0.00 92 1017.3
20260508100517 3 0.0 1.6 0.00 0.00 0.00 92 1017.1
20260508095517 3 0.0 0.0 0.00 0.03 0.00 92 1017.2
20260508094517 3 0.0 1.6 0.00 0.03 0.00 92 1017.0
20260508093537 3 0.0 0.0 0.00 0.03 0.00 91 1017.0
20260508092517 4 0.0 0.0 0.00 0.03 0.00 91 1017.1
20260508091517 4 0.0 0.0 0.00 0.03 0.00 92 1016.9
20260508090517 4 0.0 1.6 0.00 0.03 0.00 92 1016.7
20260508085517 4 0.0 0.0 0.00 0.03 0.00 92 1016.8
20260508084516 4 0.0 1.6 0.00 0.03 0.00 92 1016.8
20260508083516 4 0.0 0.0 0.00 0.03 0.00 91 1016.8
20260508082517 5 0.0 0.0 0.00 0.03 0.00 91 1016.6
20260508081516 5 0.0 3.2 0.00 0.03 0.00 92 1016.6
20260508080516 5 0.0 0.0 0.00 0.03 0.00 91 1016.5
20260508075516 5 0.0 0.0 0.00 0.05 0.00 91 1016.7
20260508074517 5 0.0 0.0 0.00 0.05 0.00 91 1016.7
20260508073519 5 0 1.6 1.6 0.00 0.05 0.00 90 1016.7
20260508072516 5 0.0 3.2 0.00 0.05 0.00 90 1016.8
20260508071516 5 0 1.6 1.6 0.00 0.05 0.00 92 1016.5
20260508070516 5 0.0 3.2 0.00 0.05 0.00 91 1016.8
20260508065516 5 0.0 0.0 0.00 0.05 0.00 90 1016.7
20260508064516 5 0.0 0.0 0.00 0.05 0.00 90 1016.7
20260508063516 6 0.0 3.2 0.00 0.05 0.00 90 1016.8
20260508062536 6 0.0 3.2 0.00 0.05 0.00 89 1017.0
20260508061516 6 0.0 3.2 0.00 0.05 0.00 90 1016.8
20260508060516 6 0.0 1.6 0.00 0.05 0.00 89 1016.8
20260508055516 6 0.0 0.0 0.00 0.05 0.00 88 1016.8
20260508054516 6 0.0 3.2 0.00 0.08 0.00 89 1016.8
20260508053516 6 0.0 3.2 0.00 0.08 0.00 90 1016.9
20260508052516 6 0.0 0.0 0.00 0.08 0.00 89 1016.9
20260508051516 6 0.0 3.2 0.00 0.08 0.00 89 1016.7
20260508050536 6 0.0 3.2 0.00 0.08 0.00 89 1016.8
20260508045516 6 0.0 0.0 0.00 0.08 0.00 89 1016.7
20260508044516 6 0.0 3.2 0.00 0.08 0.00 89 1016.5
20260508043516 6 0.0 1.6 0.00 0.08 0.00 89 1016.4
20260508042516 7 0.0 0.0 0.00 0.08 0.00 88 1016.2
20260508041516 7 0.0 3.2 0.00 0.08 0.00 88 1016.1
20260508040536 7 0.0 0.0 0.00 0.08 0.00 89 1016.1
20260508035537 7 0.0 3.2 0.00 0.08 0.08 89 1016.2
20260508034517 7 0.0 0.0 0.00 0.08 0.08 88 1015.9
20260508033517 7 0.0 0.0 0.00 0.08 0.08 88 1016.0
20260508032517 7 0.0 0.0 0.00 0.08 0.08 88 1015.8
20260508031517 8 0.0 1.6 0.00 0.10 0.08 88 1015.6
20260508030517 8 0 1.6 1.6 0.00 0.10 0.08 89 1015.9
20260508025517 8 0.0 3.2 0.00 0.10 0.08 88 1015.9
20260508024517 8 0.0 1.6 0.00 0.10 0.08 87 1015.7
20260508023537 8 0.0 3.2 0.00 0.10 0.08 87 1015.6
20260508022517 8 0.0 3.2 0.00 0.10 0.08 86 1015.6
20260508021517 8 0.0 1.6 0.00 0.10 0.08 85 1015.3
20260508020517 8 0.0 3.2 0.00 0.10 0.08 85 1015.2
20260508015516 9 0.0 1.6 0.00 0.10 0.08 83 1015.0
20260508014537 9 0.0 1.6 0.00 0.10 0.08 83 1015.0
20260508013517 10 0.0 0.0 0.00 0.10 0.08 81 1014.9
20260508012517 10 0.0 3.2 0.00 0.10 0.08 80 1014.6